Hourly Data Report for July 04, 2011

HALIFAX STANFIELD INT'L A
NOVA SCOTIA

44°52'48.060" N
63°30'00.050" W
145.40 m
8202250
71395
YHZ

Download Data

Hourly Data (July 2011)
Hourly Data Report for July 4, 2011
TIME
LST
Temp Definition
°C
Dew Point Definition
°C
Rel Hum Definition
%
Precip. Amount Definition
mm

Wind Dir Definition
10's deg

Wind Spd Definition
km/h
Visibility Definition
km
Stn Press Definition
kPa
Hmdx Definition


Wind Chill Definition


Weather Definition


00:00 14.9 14.1 95   16 19 0.4 99.77     Fog
01:00 14.9 14.3 96   18 19 0.6 99.74     Fog
02:00 14.6 13.9 96   18 22 9.7 99.71     Fog
03:00 14.5 13.7 95   16 17 9.7 99.68     Fog
04:00 14.7 13.9 95   17 15 0.8 99.65     Fog
05:00 14.8 14.1 96   17 17 0.6 99.66     Fog
06:00 15.4 14.7 96   17 19 0.6 99.64     Fog
07:00 16.0 15.3 96   15 17 4.8 99.62     Fog
08:00 16.6 15.3 92   17 22 16.1 99.63     Cloudy
09:00 17.4 15.3 87   18 24 24.1 99.60     Cloudy
10:00 18.1 16.1 88   19 24 16.1 99.58     Cloudy
11:00 21.5 16.9 75   20 28 24.1 99.49 27   Mostly Cloudy
12:00 21.5 16.5 73   21 35 24.1 99.47 26   Mostly Cloudy
13:00 20.1 16.1 78   20 30 24.1 99.47 25   Cloudy
14:00 20.2 16.7 80   19 30 19.3 99.44 25   Cloudy
15:00 18.8 16.2 85   19 30 16.1 99.42     Rain Showers
16:00 19.8 16.7 82   19 22 16.1 99.37     Cloudy
17:00 19.8 17.2 85   20 24 19.3 99.37     Cloudy
18:00 19.9 17.3 85   20 20 19.3 99.38     Mostly Cloudy
19:00 19.4 17.2 87   19 22 19.3 99.39     Mostly Cloudy
20:00 18.4 16.9 91   18 20 19.3 99.38     Cloudy
21:00 18.3 17.1 93   17 15 1.6 99.38     Fog
22:00 17.4 16.6 95   18 9 1.0 99.40     Fog
23:00 16.8 16.0 95   17 9 0.4 99.43     Fog

Notes on Data Quality.

Legend

  • E = Estimated
  • M = Missing
  • NA = Not Available*
  • [empty] = Indicates an unobserved value
Date modified: